www.pogodaiklimat.ru

Погода и климат >> Архив погоды >> Россия >> Курганская область >> Шатрово


ПОГОДА в Шатрово

  • Прогноз погоды в Шатрово
  • Монитор погоды в Шатрово

АРХИВ ПОГОДЫ в Шатрово

Время (UTC), дата Ветер
(напр.,м/с)
 
Видим.   Явления Облачность Т
(С)
Тd
(С)
f
(%)
Тe
(С)
Тes
(С)
Комфортность P
(гПа)
Po
(гПа)
Тmin
(С)
Tmax
(С)
R
(мм)
R24
(мм)
S
(см)
18 14.05 СВ 2 10 км 3/0
[Ci fib]
+2.6 -5.5 55 0 0 1028.2 1013.8
21 14.05 СВ 1 10 км 3/0
[Ac trans]
+0.2 -5.5 65 -1 -1 1029.8 1015.3
00 15.05 В 1 20 км 4/0
[Ci fib]
-2.0 -5.6 76 -4 -4 1030.9 1016.2
03 15.05 В 3 20 км 3/0
[Ci fib]
+3.8 -6.2 48 +1 +4 1031.6 1017.3 -2.8
06 15.05 В 2 20 км 1/0
[Ci fib]
+7.7 -8.0 32 +7 +19 опасность
простуды
1030.7 1016.6
09 15.05 В 3 20 км 1/0
[Ci fib]
+10.8 -9.1 24 +10 +20 опасность
простуды
1029.4 1015.4
12 15.05 В 2 20 км 1/0
[Ci fib]
+12.5 -10.1 20 +12 +18 1028.1 1014.2
15 15.05 ЮВ 1 20 км 3/0
[Ac trans]
+11.1 -9.3 23 +12 +12 1027.4 1013.4 +13.0
18 15.05 В 1 10 км 1/0
[Ac trans]
-0.0 -4.7 71 -2 -2 1028.1 1013.6
21 15.05 штиль 0 10 км 1/0
[Ac trans]
-3.4 -5.4 86 -4 -4 1028.3 1013.6
00 16.05 штиль 0 20 км 6/0
[Ci fib]
-4.0 -5.7 88 -5 -5 1028.2 1013.4
03 16.05 ЮЗ 3 20 км 4/0
[Ci fib]
+9.3 -6.0 33 +8 +11 1026.9 1012.8 -5.1
06 16.05 Ю 3 20 км 9/0
[Ac trans Ci fib]
+13.5 -8.2 21 +13 +20 1025.6 1011.8
09 16.05 Ю 3 20 км 10/0
[Ac trans Ci fib]
+16.7 -7.8 18 +17 +24 1022.9 1009.3
12 16.05 Ю 4 20 км 9/0
[Ac trans Ci fib]
+16.5 -9.2 16 +16 +18 1020.7 1007.1
15 16.05 ЮВ 2 20 км 9/0
[Ac trans Ci fib]
+14.8 -8.4 19 +15 +15 1018.7 1005.1 +17.4
18 16.05 ЮВ 3 10 км 8/0
[Ac trans]
+12.4 -7.6 24 +11 +11 1016.0 1002.2
21 16.05 Ю 2 10 км 8/0
[Ac trans]
+10.8 -7.0 28 +10 +10 1012.9 999.2
00 17.05 Ю 4 20 км 10/4 600 м
[Cb calv Ac trans]
+12.9 -6.2 26 +12 +12 1009.5 995.9
03 17.05 Ю 3 20 км слаб. ливневой дождь 10/10 600 м
[Cb calv]
+8.6 +5.5 81 +6 +6 1007.8 994.0 +8.5 1
06 17.05 Ю 3 20 км слаб. ливневой дождь 10/4 600 м
[Cb calv Ac und]
+11.9 +3.8 58 +11 +12 1004.5 990.9
09 17.05 Ю 3
{14}
20 км слаб. ливневой дождь 10/10 600 м
[Cb calv]
+9.6 +7.7 88 +7 +7 1003.0 989.4
12 17.05 З 2 20 км слаб. ливневой дождь 10/10 600 м
[Cb calv]
+11.7 +9.0 83 +11 +11 1002.9 989.4
15 17.05 СЗ 5-10
{10}
20 км слаб. ливневой дождь 10/10 600 м
[Cb calv]
+8.0 +5.7 85 +4 +4 1004.8 991.1 +11.9 5
18 17.05 СЗ 4
{10}
10 км {ливн. осадки} 10/8 600 м
[Cb calv Ac und]
+6.0 +2.9 80 +2 +2 1007.0 993.1
21 17.05 З 3 10 км 9/3 600 м
[Cb calv Ac trans]
+4.4 +2.2 86 +1 +1 1006.5 992.5
00 18.05 З 2 20 км 8/3 600 м
[Cb calv Ac trans]
+2.9 +0.8 86 -0 -0 1006.3 992.2
03 18.05 З 3 20 км 4/0
[Ac trans Ci fib]
+6.1 -0.6 62 +3 +6 1005.5 991.6 +2.5 0.3
06 18.05 З 4 20 км 6/6 1000 м
[Cu hum]
+9.5 -4.0 38 +7 +11 1003.6 989.9
09 18.05 З 4
{10}
20 км 8/8 600 м
[Cb calv]
+11.3 -0.7 43 +9 +11 1002.0 988.4
12 18.05 З 4
{12}
20 км в посл. час ливневой дождь 8/8 600 м
[Cb calv Ac trans]
+11.0 +3.1 58 +9 +10 1001.4 987.8
15 18.05 С 1 20 км 8/5 600 м
[Cb calv Ac trans Ci fib]
+8.2 +1.5 63 +8 +8 1001.0 987.3 +12.4 0.5
18 18.05 З 1 10 км в посл. час ливневой дождь 9/5 600 м
[Cb calv Ac trans]
+5.8 +2.8 81 +5 +5 1000.7 986.9
21 18.05 Ю 2 10 км слаб. ливневой дождь 8/8 600 м
[Cb calv]
+5.1 +2.7 84 +3 +3 999.7 985.8
00 19.05 ЮЗ 1 20 км {ливн. осадки} 10/4 600 м
[Cb calv Ac trans Ci fib]
+3.9 +2.4 90 +2 +2 998.9 985.0
03 19.05 СЗ 1 20 км 10/8 600 м
[Cb calv Ac trans Ci fib]
+5.3 +3.1 86 +4 +5 998.4 984.6 +3.9
06 19.05 З 2 20 км слаб. ливневой дождь 10/10 600 м
[Cb calv]
+6.0 +2.6 79 +4 +4 998.2 984.4
09 19.05 ЮЗ 3 20 км слаб. ливневой дождь 10/10 600 м
[Cb calv]
+4.3 +1.9 84 +1 +1 999.0 985.1
12 19.05 З 4 20 км слаб. ливневой дождь 10/10 600 м
[Cb calv]
+5.4 +3.0 85 +1 +1 1000.4 986.6
15 19.05 ЮЗ 4 20 км в посл. час ливневой дождь 10/10 600 м
[Cb calv]
+5.1 +3.0 86 +1 +1 1001.3 987.4 +9.7 11
18 19.05 З 4 10 км {ливн. осадки} 9/9 600 м
[Cb calv]
+4.8 +1.8 81 +1 +1 1002.5 988.6
21 19.05 З 2 10 км 8/6 600 м
[Cb calv Ac trans]
+3.6 +1.3 85 +1 +1 1003.1 989.1
00 20.05 З 3 20 км 8/8 600 м
[Cb calv]
+2.7 +0.8 87 -1 -1 1003.8 989.8
03 20.05 З 3 20 км 8/6 600 м
[Cb calv Ac trans]
+5.2 +1.2 75 +2 +3 1004.1 990.2 +2.3
06 20.05 ЮЗ 3 20 км 8/6 600 м
[Cb calv]
+8.1 -0.6 54 +6 +9 1003.7 990.0
09 20.05 З 6-10
{11}
20 км 9/8 600 м
[Cb calv Ac trans]
+9.3 -1.3 47 +6 +7 1004.1 990.4
12 20.05 СЗ 3
{10}
20 км слаб. ливневой дождь 9/8 600 м
[Cb calv Ci fib]
+8.5 +0.4 57 +6 +7 1004.6 990.8
15 20.05 З 2 20 км {ливн. осадки} 9/6 600 м
[Cb calv Ac trans Ci fib]
+6.5 +0.4 65 +5 +5 1005.3 991.4 +10.6
18 20.05 З 2 10 км 9/4 600 м
[Cb calv Ac trans]
+3.4 +1.0 84 0 0 1005.6 991.6
21 20.05 З 2 10 км 10/3 600 м
[Cb calv Ac und]
+2.5 -0.2 82 -1 -1 1005.6 991.5
00 21.05 З 2 20 км 6/0
[Ac trans Ci fib]
+1.8 -0.5 85 -2 -1 1006.1 992.0
03 21.05 З 3 20 км 10/8 600 м
[Cb calv Ci fib]
+4.8 +0.7 75 +1 +2 1006.5 992.5 +1.4
06 21.05 СЗ 3 20 км в посл. час ливневой дождь 10/8 600 м
[Cb calv Ci fib]
+6.1 +2.1 76 +3 +5 1006.7 992.8
09 21.05 СЗ 5-10
{11}
20 км в посл. час ливневой дождь 9/9 600 м
[Cb calv]
+7.1 +1.6 68 +3 +4 1007.5 993.6
12 21.05 СЗ 4
{10}
20 км {ливн. осадки} 8/4 600 м
[Cb calv Ac trans]
+7.6 -1.7 52 +5 +6 1008.9 995.0
15 21.05 СЗ 3 20 км 9/8 600 м
[Cb calv Ac trans]
+6.3 +0.3 65 +3 +3 1010.4 996.5 +8.6 2

 

Местоположение метеостанции Шатрово (Курганская область, Россия): широта 56.52 долгота 64.65 высота над уровнем моря 114 м.

В архиве по умолчанию представлена погода в Шатрово за последнюю неделю. Архивные данные за месяц целиком и за предыдущие месяцы, начиная с января 2011 года, Вы можете получить, выбрав интересующий диапазон дат из раскрывающегося списка и нажав кнопку "Ввод!".


*Определитесь, кто Вы:
робот инопланетянин человек

Внимание! Время в таблицах - всемирное. Для получения местного времени необходимо прибавить поправку, которая равна 5 ч.

Смотрите также архив погоды в соседних городах и на ближайших метеорологических станциях:

Погода в Исетском (Тюменская область, Россия) (42 км)
Погода в Бутке (Свердловская область, Россия) (58 км)
Погода в Тугулыме (Свердловская область, Россия) (61 км)
Погода в Шадринске (Курганская область, Россия) (79 км)
Погода в Тюмени (Тюменская область, Россия) (82 км)
Погода в Памятном (Курганская область, Россия) (85 км)
Погода в Ялуторовске (Тюменская область, Россия) (106 км)
Погода в Далматово (Курганская область, Россия) (109 км)
Погода в Камышлове (Свердловская область, Россия) (123 км)
Погода в Кургане (Курганская область, Россия) (128 км)

Пояснения к столбцам:

Ветер - указаны скорость ветра в м/с - средняя за 10 мин, порывы в срок и между сроками (в фигурных скобках) и направление, откуда дует ветер: С - северный, СВ - северо-восточный, В - восточный, ЮВ - юго-восточный, Ю - южный, ЮЗ - юго-западный, З - западный, СЗ - северо-западный.
Видимость - горизонтальная дальность видимости в метрах или километрах. При видимости от 1 до 10 км при отсутствии осадков обычно наблюдается дымка, при ухудшении видимости до 1 км и менее - туман. В сухую погоду видимость может ухудшаться дымом, пылью или мглою.
Явления - указаны атмосферные явления, наблюдавшиеся в срок или в последний час перед сроком; фигурными скобками обозначены явления, наблюдавшиеся между сроками (за 1-3 часа до срока); квадратными скобками обозначены град или гололедные отложения с указанием их диаметра в мм.
Облачность - указаны через наклонную черту общая и нижняя облачность в баллах и высота нижней границы облаков в метрах; квадратными скобками обозначены формы облаков: Ci - перистые, Cs - перисто-слоистые, Cc - перисто-кучевые, Ac - высококучевые, As - высокослоистые, Sc - слоисто-кучевые, Ns - слоисто-дождевые, Cu - кучевые, Cb - кучево-дождевые. Подробнее классификацию облаков см. в Атласе облаков (PDF).
T - Температура воздуха - температура, измеренная на высоте 2 м над землей.
Td - Температура точки росы - температура, при понижении до которой содержащийся в воздухе водяной пар достигнет насыщения.
f - Относительная влажность воздуха - влажноcть воздуха, измеренная на высоте 2 м над землей.
Te - Эффективная температура - температура, которую ощущает одетый по сезону человек в тени. Характеристика душности погоды. При расчете учитывается влияние влажности воздуха и скорости ветра на теплоощущения человека.
Tes - Эффективная температура на солнце - температура, которую ощущает человек, с поправкой на солнечный нагрев. Характеристика знойности погоды. Зависит от высоты солнца над горизонтом, облачности и скорости ветра. Ночью, в пасмурную погоду, а также при ветре 12 м/с и более поправка равна нулю.
P - Атмосферное давление - приведенное к уровню моря атмосферное давление.
Po - Атмосферное давление - измеренное на уровне метеостанции атмосферное давление.
Tmin - Минимальная температура - минимум температуры воздуха на высоте 2 м над землей.
Tmax - Максимальная температура - максимум температуры воздуха на высоте 2 м над землей.
R - Количество осадков - Количество выпавших осадков за период времени, мм. При наведении курсора мыши на число - период времени, за который выпало указанное количество осадков.
R24 - Количество осадков - Количество выпавших осадков за 24 часа, мм.
S - Снежный покров - Высота снежного покрова, см. При наведении курсора мыши на число - состояние снежного покрова и степень покрытия местности в баллах.